Skip Page Navigation
NASA JPL Caltech
NASA Logo - Jet Propulsion Laboratory + View the NASA Portal
+ Center for Near-Earth Object Studies
JPL Home Earth Solar System Stars & Galaxies Technology
JPL Solar System Dynamics
BODIES ORBITS EPHEMERIDES TOOLS PHYSICAL DATA DISCOVERY FAQ SITE MAP
JPL Small-Body Database Browser
Search: [ help ]  
385824 (2006 GW6)
Classification: Main-belt Asteroid          SPK-ID: 2385824
Ephemeris | Orbit Diagram | Orbital Elements | Mission Design | Physical Parameters | Discovery Circumstances | Close-Approach Data ]

[ show orbit diagram ]
Orbital Elements at Epoch 2459200.5 (2020-Dec-17.0) TDB
Reference: JPL 15 (heliocentric ecliptic J2000)
 Element Value Uncertainty (1-sigma)   Units 
e .161193018498148 1.9486e-07  
a 2.597902731768902 5.7393e-08 au
q 2.179138948670488 5.402e-07 au
i 5.57637110297317 1.2449e-05 deg
node 139.3264891244833 8.8484e-05 deg
peri 59.50675165291763 0.00010929 deg
M 180.6124070211497 8.7387e-05 deg
tp 2459962.618771183005
(2023-Jan-18.11877118)
0.00039468 TDB
period 1529.441100523763
4.19
5.0683e-05
1.388e-07
d
yr
n .2353801005326172 7.8001e-09 deg/d
Q 3.016666514867316 6.6645e-08 au
  Orbit Determination Parameters
   # obs. used (total)      92  
   data-arc span      6712 days (18.38 yr)  
   first obs. used      2002-05-09  
   last obs. used      2020-09-23  
   planetary ephem.      DE441  
   SB-pert. ephem.      SB441-N16  
   condition code      0  
   norm. resid. RMS      .67537  
   source      ORB  
   producer      Otto Matic  
   solution date      2021-Apr-14 11:06:45  

Additional Information
 Earth MOID = 1.18306 au 
 Jupiter MOID = 1.95114 au 
 T_jup = 3.391 
[ show covariance matrix ]

Ephemeris | Orbit Diagram | Orbital Elements | Mission Design | Physical Parameters | Discovery Circumstances | Close-Approach Data ]

Physical Parameter Table
Parameter Symbol Value Units Sigma Reference Notes
absolute magnitude H 17.1   n/a MPO434399  

385824 (2006 GW6)          Discovered 2006-Apr-02 by Spacewatch at Kitt Peak
Reference: Last Updated: 2014-02-19

[ show close-approach data ]
Alternate Designations
 2006 GW6 = 2010 CH155 
Ephemeris | Orbit Diagram | Orbital Elements | Mission Design | Physical Parameters | Discovery Circumstances | Close-Approach Data ]
ABOUT SSD CREDITS/AWARDS PRIVACY/COPYRIGHT GLOSSARY LINKS
FirstGov 2021-Jun-21 02:22 UT
(server date/time)  
NASA Home Page
Site Manager:   Ryan S. Park
Webmaster  Alan B. Chamberlin